Tehachapi, CA

11:59 PM PDT on August 26, 2016 (GMT -0700)
Tehachapi Municipal

Weather History for KTSP - November, 2012

Change the Weather History Date:

Thursday, November 1, 2012

  Actual Average Record
Temperature  
Mean Temperature 50 °F -  
Max Temperature 64 °F 64 °F 71 °F (2015)
Min Temperature 37 °F 36 °F 35 °F (2013)
Degree Days  
Heating Degree Days 14    
Moisture  
Dew Point 37 °F    
Average Humidity 64    
Maximum Humidity 93    
Minimum Humidity 37    
Precipitation  
Precipitation 0.00 in - - ()
Sea Level Pressure  
Sea Level Pressure 30.05 in    
Wind  
Wind Speed 5 mph (WNW)    
Max Wind Speed 18 mph    
Max Gust Speed 23 mph    
Visibility 6 miles    
Events      
Averages and records for this station are not official NWS values.
T = Trace of Precipitation, MM = Missing Value Source: NWS Daily Summary

Daily Weather History Graph

Daily Weather History Graph

Search for Another Location

Airport or City:

Trip Planner

Search our weather history database for the weather conditions in past years. The results will help you decide how hot, cold, wet, or windy it might be!

Date:

Astronomy

Nov. 01, 2012 Rise Set
Actual Time 7:15 AM PDT 5:58 PM PDT
Civil Twilight 6:49 AM PDT 6:24 PM PDT
Nautical Twilight 6:19 AM PDT 6:54 PM PDT
Astronomical Twilight 5:49 AM PDT 7:24 PM PDT
Moon 8:04 PM PDT (11/1) 9:47 AM PDT (11/1)
Length of Visible Light 11h 35m
Length of Day
10h 43m
Waning Gibbous, 92% of the Moon is Illuminated
Nov 1
Waning Gibbous
Nov 6
Last Quarter
Nov 13
New
Nov 20
First Quarter
Nov 28
Full

Hourly Weather History & Observations

Time (PDT) Temp. Windchill Dew Point Humidity Pressure Visibility Wind Dir Wind Speed Gust Speed Precip Events Conditions
12:15 AM 48.2 °F - 24.8 °F 40% 30.09 in 10.0 mi West 3.5 mph - N/A   Clear
12:35 AM 46.4 °F - 28.4 °F 50% 30.08 in 10.0 mi Calm Calm - N/A   Clear
1:15 AM 41.0 °F - 26.6 °F 57% 30.07 in 10.0 mi Calm Calm - N/A   Clear
1:35 AM 41.0 °F - 26.6 °F 57% 30.07 in 10.0 mi Calm Calm - N/A   Clear
1:55 AM 41.0 °F 39.0 °F 26.6 °F 57% 30.07 in 10.0 mi SE 3.5 mph - N/A   Clear
2:15 AM 42.8 °F - 26.6 °F 53% 30.07 in 10.0 mi Calm Calm - N/A   Clear
2:35 AM 41.0 °F - 24.8 °F 53% 30.06 in 10.0 mi Calm Calm - N/A   Clear
2:55 AM 41.0 °F 38.0 °F 24.8 °F 53% 30.06 in 10.0 mi SE 4.6 mph - N/A   Clear
3:15 AM 39.2 °F - 24.8 °F 56% 30.06 in 10.0 mi Calm Calm - N/A   Clear
3:35 AM 39.2 °F - 24.8 °F 56% 30.05 in 10.0 mi Calm Calm - N/A   Clear
3:55 AM 37.4 °F - 24.8 °F 60% 30.05 in 10.0 mi Calm Calm - N/A   Clear
4:15 AM 39.2 °F - 26.6 °F 61% 30.05 in 10.0 mi Calm Calm - N/A   Clear
4:35 AM 39.2 °F - 26.6 °F 61% 30.05 in 10.0 mi Calm Calm - N/A   Clear
4:55 AM 39.2 °F - 26.6 °F 61% 30.05 in 10.0 mi Calm Calm - N/A   Clear
5:15 AM 39.2 °F - 26.6 °F 61% 30.05 in 9.0 mi Calm Calm - N/A   Clear
5:35 AM 41.0 °F - 28.4 °F 61% 30.05 in 9.0 mi Calm Calm - N/A   Clear
5:55 AM 41.0 °F - 26.6 °F 57% 30.05 in 9.0 mi Calm Calm - N/A   Clear
6:35 AM 39.2 °F - 26.6 °F 61% 30.05 in 8.0 mi Calm Calm - N/A   Clear
6:55 AM 39.2 °F 37.0 °F 28.4 °F 65% 30.05 in 8.0 mi ESE 3.5 mph - N/A   Clear
7:15 AM 37.4 °F - 28.4 °F 70% 30.05 in 4.0 mi Calm Calm - N/A   Haze
7:35 AM 39.2 °F 37.0 °F 28.4 °F 65% 30.05 in 5.0 mi ESE 3.5 mph - N/A   Haze
7:55 AM 37.4 °F - 28.4 °F 70% 30.06 in 5.0 mi Calm Calm - N/A   Haze
8:15 AM 37.4 °F - 28.4 °F 70% 30.06 in 5.0 mi Calm Calm - N/A   Haze
8:35 AM 44.6 °F 42.2 °F 33.8 °F 66% 30.07 in 5.0 mi SW 4.6 mph - N/A   Haze
8:55 AM 48.2 °F - 35.6 °F 62% 30.07 in 5.0 mi WSW 5.8 mph - N/A   Haze
9:15 AM 51.8 °F - 37.4 °F 58% 30.07 in 5.0 mi West 6.9 mph - N/A   Haze
9:35 AM 53.6 °F - 39.2 °F 58% 30.07 in 5.0 mi WNW 8.1 mph - N/A   Haze
9:55 AM 55.4 °F - 39.2 °F 54% 30.08 in 5.0 mi WNW 10.4 mph - N/A   Haze
10:15 AM 57.2 °F - 39.2 °F 51% 30.07 in 5.0 mi NW 11.5 mph - N/A   Haze
10:35 AM 57.2 °F - 39.2 °F 51% 30.08 in 5.0 mi NW 10.4 mph - N/A   Haze
10:55 AM 59.0 °F - 37.4 °F 45% 30.08 in 5.0 mi NW 12.7 mph - N/A   Haze
11:15 AM 60.8 °F - 35.6 °F 39% 30.07 in 5.0 mi NW 10.4 mph - N/A   Haze
11:35 AM 62.6 °F - 35.6 °F 37% 30.06 in 5.0 mi NW 11.5 mph 17.3 mph N/A   Haze
12:15 PM 62.6 °F - 37.4 °F 39% 30.04 in 9.0 mi NW 16.1 mph - N/A   Clear
12:35 PM 62.6 °F - 37.4 °F 39% 30.04 in 7.0 mi NW 18.4 mph 23.0 mph N/A   Clear
1:15 PM 64.4 °F - 37.4 °F 37% 30.03 in 6.0 mi NW 17.3 mph 23.0 mph N/A   Haze
1:35 PM 62.6 °F - 41.0 °F 45% 30.03 in 7.0 mi NW 16.1 mph 21.9 mph N/A   Clear
1:55 PM 62.6 °F - 41.0 °F 45% 30.02 in 6.0 mi NW 18.4 mph 21.9 mph N/A   Haze
2:15 PM 60.8 °F - 41.0 °F 48% 30.03 in 6.0 mi NW 16.1 mph 23.0 mph N/A   Haze
2:35 PM 60.8 °F - 42.8 °F 52% 30.03 in 5.0 mi NW 16.1 mph - N/A   Haze
2:55 PM 60.8 °F - 42.8 °F 52% 30.03 in 6.0 mi NW 15.0 mph 18.4 mph N/A   Haze
3:15 PM 59.0 °F - 42.8 °F 55% 30.03 in 5.0 mi NW 16.1 mph - N/A   Haze
3:35 PM 59.0 °F - 41.0 °F 51% 30.04 in 5.0 mi NW 13.8 mph 18.4 mph N/A   Haze
4:15 PM 57.2 °F - 41.0 °F 55% 30.03 in 5.0 mi NW 13.8 mph 20.7 mph N/A   Haze
4:35 PM 57.2 °F - 41.0 °F 55% 30.04 in 5.0 mi NW 15.0 mph - N/A   Haze
4:55 PM 55.4 °F - 44.6 °F 67% 30.05 in 5.0 mi NW 13.8 mph - N/A   Haze
5:15 PM 53.6 °F - 44.6 °F 72% 30.04 in 5.0 mi WNW 12.7 mph - N/A   Haze
5:35 PM 53.6 °F - 44.6 °F 72% 30.05 in 4.0 mi WNW 11.5 mph - N/A   Haze
5:55 PM 51.8 °F - 44.6 °F 76% 30.04 in 4.0 mi NW 11.5 mph - N/A   Haze
6:15 PM 51.8 °F - 44.6 °F 76% 30.04 in 4.0 mi WNW 11.5 mph - N/A   Haze
6:35 PM 50.0 °F - 44.6 °F 82% 30.04 in 5.0 mi WNW 8.1 mph - N/A   Haze
6:55 PM 50.0 °F - 44.6 °F 82% 30.04 in 5.0 mi West 8.1 mph - N/A   Haze
7:15 PM 50.0 °F - 44.6 °F 82% 30.04 in 5.0 mi WNW 6.9 mph - N/A   Haze
7:35 PM 48.2 °F - 42.8 °F 82% 30.04 in 5.0 mi WNW 4.6 mph - N/A   Haze
7:55 PM 46.4 °F 41.1 °F 42.8 °F 87% 30.04 in 5.0 mi NW 11.5 mph - N/A   Partly Cloudy
8:15 PM 48.2 °F - 44.6 °F 87% 30.04 in 5.0 mi NW 12.7 mph - N/A   Mostly Cloudy
8:35 PM 50.0 °F - 44.6 °F 82% 30.06 in 5.0 mi West 9.2 mph - N/A   Haze
8:55 PM 50.0 °F - 44.6 °F 82% 30.06 in 5.0 mi West 8.1 mph - N/A   Haze
9:15 PM 50.0 °F - 46.4 °F 87% 30.07 in 5.0 mi WNW 8.1 mph - N/A   Overcast
9:35 PM 50.0 °F - 46.4 °F 87% 30.07 in 6.0 mi WNW 8.1 mph - N/A   Overcast
9:55 PM 50.0 °F - 46.4 °F 87% 30.07 in 7.0 mi WNW 9.2 mph - N/A   Overcast
10:15 PM 50.0 °F - 46.4 °F 87% 30.07 in 6.0 mi NW 10.4 mph - N/A   Mostly Cloudy
10:35 PM 48.2 °F - 46.4 °F 93% 30.07 in 6.0 mi NW 8.1 mph - N/A   Overcast
10:55 PM 48.2 °F - 46.4 °F 93% 30.07 in 5.0 mi West 3.5 mph - N/A   Overcast
11:15 PM 48.2 °F - 46.4 °F 93% 30.06 in 6.0 mi NW 6.9 mph - N/A   Overcast
11:35 PM 48.2 °F - 44.6 °F 87% 30.06 in 5.0 mi WNW 6.9 mph - N/A   Overcast
11:55 PM 48.2 °F - 44.6 °F 87% 30.07 in 5.0 mi West 6.9 mph - N/A   Overcast